Regional Weather Roundup
Issued by NWS

Home | Current Version | Previous Version | Text Only | Print | Product List | Glossary On
Versions: 1 2 3 4 5 6 7 8 9 10 11 12 13 14 15 16 17 18 19 20 21 22 23 24 25 26 27 28 29 30 31 32 33 34 35 36 37 38 39 40 41 42 43 44 45 46 47 48 49 50
000
ASCA42 TJSJ 191710
RWRPR
PUERTO RICO/U.S. VIRGIN ISLANDS HOURLY WEATHER ROUNDUP
NATIONAL WEATHER SERVICE SAN JUAN PR
100 PM AST THU JAN 19 2017

PRZ001>002-007>008-010-191800-
PUERTO RICO

CITY           SKY/WX    TMP DP  RH WIND       PRES   REMARKS
SAN JUAN LMM   MOSUNNY   81  63  54 NE10      29.98F
AGUADILLA      SUNNY     79  64  61 NE13      30.00F
CEIBA          SUNNY     81  64  57 E5        29.99F
$$

VIZ001>002-191800-
U.S. VIRGIN ISLANDS

CITY           SKY/WX    TMP DP  RH WIND       PRES   REMARKS
CHARLOTTE AMA  SUNNY     81  64  57 SE9       29.96F
CHRISTIANSTED  MOSUNNY   82  64  54 E12       29.97F
$$

HOURLY WEATHER ROUNDUP FOR THE NEWS MEDIA

CITY           SKY/WX    TMP DP  RH WIND       PRES   REMARKS
ORLANDO        MOSUNNY   77  64  64 CALM      30.07F
NEW YORK       MOSUNNY   49  33  54 N9        30.02F
NEWARK         MOSUNNY   49  36  61 NW14G23   30.02F
CHICAGO        CLOUDY    38  35  89 SE7       29.95F FOG     WCI  33
HARTFORD       PTSUNNY   46  36  68 VRB7      29.95F
BOSTON         MOSUNNY   43  35  73 W12       29.97F
DALLAS         CLOUDY    53  48  83 S8        29.83F
PHILADELPHIA   PTSUNNY   48  35  60 NW10      30.05F
LOS ANGELES    PTSUNNY   58  54  86 W8        29.95R
WASHINGTON DC  CLOUDY    49  36  61 NW7       30.08F


USA.gov is the U.S. government's official web portal to all federal, state and local government web resources and services.